loading
|

OBJECT A, 60745

Orbit data source: Space-Track

OBJECT A, 60745 is a satellite owned by Yunyao yuhang (CN) in SSO that was launched on Thu, 29 Aug 2024 UTC via a GUSHENXING 1 launch vehicle from the Yellow Sea Launch Area, China (YSLA). Unknown objects in Earth's orbit typically refer to objects detected orbiting the Earth but have not yet been identified or cataloged. These objects could be anything from previously untracked satellites, spent rocket stages, debris from satellite collisions, or even natural meteoroids temporarily captured by Earth's gravity.

Loading next visibility...
Loading greatness...
OBJECT A details
Identifier
60745, 2024-153A
Orbit
SSO
Last TLE update7 hours ago
Origin
Flag of CNYunyao yuhang (CN / PRC)
ManufacturerYunyao yuhang
Mission statusOperational
MissionUnknown
Bus & MotorYY-1, Unknown motor
Mass~50 kg wet, ~50 kg dry
Launch date (UTC)
2024-08-29 (3 weeks ago)
Launch vehicle
GUSHENXING 1
Launch site
Yellow Sea Launch Area, China (YSLA)
Object typeUnknown
Radar Cross SectionLarge (>1 m²)

Expand to show TLE details & history

TLE from 7 hours ago
0 OBJECT A
1 60745U 24153A   24261.62222604  .00039545  00000-0  24214-2 0  9997
2 60745  97.6172  19.0330 0016154 217.6949 142.3149 15.09966446  2935
Epoch: 2024-09-17T14:56Z
Definitive object data (Epoch: 2024-09-17T14:56:00.329Z)
Latitude-0.00008°
Longitude157.9974°
Altitude548.221 km
Speed7.583 km/s
True Right ascension01h 16m 07s
True Declination0° 00' 00"
Sunlit
Object was in full shadow at TLE epoch
Predictive object data (real-time)
Latitude47.63376°
Longitude-13.3298°
Altitude542.67 km
Speed7.596 km/s
Apparent Right ascension07h 27m 55s
Apparent Declination43° 20' 44"
Sunlit
Object is in daylight
Predictive observer data (real-time)
Local Sidereal Time14:41:31
Azimuth314.314° NW
Elevation15.331°
Doppler factor1
Orbital elements
Apogee544.455 km
Perigee522.126 km
Semi-major axis6,911.428 km
Eccentricity0.0016154
Inclination97.6172°
RAAN19.033°
Arg. of periapsis217.6949°
True anomaly142.42788°
Mean anomaly142.3149°
Eccentric anomaly142.37141°
Mean motion3.77739 °/min
BSTAR0.0024214
Period95.3 mins
No data available

OBJECT A Visibility forecast

Observer location: 39.9160978°, -105.1181434

OBJECT A is not visible in the next 10 days
Span
Click to sort rows by Start time (UTC) header in descending order
Start Az.
Max El. time (UTC)
Max El. Az.
Max El.
End time (UTC)
End Az.